TimePDT,TemperatureF,Dew PointF,Humidity,Sea Level PressureIn,VisibilityMPH,Wind Direction,Wind SpeedMPH,Gust SpeedMPH,PrecipitationIn,Events,Conditions,WindDirDegrees,DateUTC
12:56 AM,51.1,34.0,52,29.90,10.0,NNW,3.5,-,N/A,,Clear,340,2012-10-08 07:56:00
1:56 AM,50.0,37.0,61,29.90,10.0,NW,5.8,-,N/A,,Clear,320,2012-10-08 08:56:00
2:56 AM,51.1,36.0,56,29.91,10.0,Calm,Calm,-,N/A,,Clear,0,2012-10-08 09:56:00
3:56 AM,51.1,32.0,48,29.90,10.0,North,4.6,-,N/A,,Clear,10,2012-10-08 10:56:00
4:56 AM,50.0,33.1,52,29.91,10.0,North,3.5,-,N/A,,Clear,350,2012-10-08 11:56:00
5:56 AM,50.0,33.1,52,29.91,10.0,North,3.5,-,N/A,,Clear,360,2012-10-08 12:56:00
6:56 AM,48.0,39.0,71,29.94,10.0,NNW,4.6,-,N/A,,Clear,330,2012-10-08 13:56:00
7:56 AM,48.0,33.1,56,29.95,10.0,North,4.6,-,N/A,,Clear,360,2012-10-08 14:56:00
8:56 AM,50.0,36.0,59,29.95,10.0,Calm,Calm,-,N/A,,Clear,0,2012-10-08 15:56:00
9:56 AM,51.1,37.9,61,29.96,10.0,Calm,Calm,-,N/A,,Clear,0,2012-10-08 16:56:00
10:56 AM,54.0,39.0,57,29.96,10.0,Calm,Calm,-,N/A,,Clear,0,2012-10-08 17:56:00
11:56 AM,55.9,39.0,53,29.96,10.0,Calm,Calm,-,N/A,,Clear,0,2012-10-08 18:56:00
12:56 PM,55.9,32.0,40,29.96,10.0,Calm,Calm,-,N/A,,Clear,0,2012-10-08 19:56:00
1:56 PM,60.1,35.1,39,29.94,10.0,Calm,Calm,-,N/A,,Clear,0,2012-10-08 20:56:00
2:56 PM,59.0,37.9,46,29.94,10.0,NNW,4.6,-,N/A,,Clear,330,2012-10-08 21:56:00
3:56 PM,61.0,39.0,44,29.93,10.0,Calm,Calm,-,N/A,,Clear,0,2012-10-08 22:56:00
4:56 PM,61.0,39.9,46,29.92,10.0,Variable,3.5,-,N/A,,Clear,0,2012-10-08 23:56:00
5:56 PM,55.9,41.0,57,29.94,10.0,Variable,3.5,-,N/A,,Clear,0,2012-10-09 00:56:00
6:56 PM,52.0,39.9,63,29.97,10.0,NNW,5.8,-,N/A,,Clear,340,2012-10-09 01:56:00
7:56 PM,50.0,39.0,66,29.99,10.0,NNW,10.4,-,N/A,,Clear,340,2012-10-09 02:56:00
8:56 PM,48.0,39.0,71,30.01,10.0,NNW,8.1,-,N/A,,Clear,340,2012-10-09 03:56:00
9:56 PM,46.9,39.0,74,30.02,10.0,NNW,9.2,-,N/A,,Clear,340,2012-10-09 04:56:00
10:56 PM,45.0,37.9,76,30.03,10.0,NNW,5.8,-,N/A,,Clear,340,2012-10-09 05:56:00
11:56 PM,44.1,39.0,82,30.03,10.0,NNW,4.6,-,N/A,,Clear,340,2012-10-09 06:56:00